TimeEST,TemperatureF,Dew PointF,Humidity,Sea Level PressureIn,VisibilityMPH,Wind Direction,Wind SpeedMPH,Gust SpeedMPH,PrecipitationIn,Events,Conditions,WindDirDegrees,DateUTC
12:51 AM,43.0,39.9,89,30.09,10.0,West,6.9,-,N/A,,Overcast,280,2012-02-17 05:51:00
12:53 AM,42.8,39.2,87,30.07,10.0,West,5.8,-,N/A,,Overcast,280,2012-02-17 05:53:00
1:05 AM,42.8,39.2,87,30.06,10.0,WNW,6.9,-,N/A,,Overcast,300,2012-02-17 06:05:00
1:51 AM,42.1,37.0,82,30.09,10.0,NW,12.7,23.0,N/A,,Overcast,320,2012-02-17 06:51:00
2:51 AM,41.0,37.0,86,30.10,10.0,NW,6.9,-,N/A,,Overcast,310,2012-02-17 07:51:00
3:51 AM,41.0,36.0,82,30.10,10.0,West,11.5,-,N/A,,Overcast,280,2012-02-17 08:51:00
4:11 AM,39.2,37.4,93,30.09,5.0,NNW,15.0,-,N/A,,Overcast,340,2012-02-17 09:11:00
4:14 AM,39.2,37.4,93,30.09,2.5,NNW,13.8,-,N/A,,Overcast,340,2012-02-17 09:14:00
4:17 AM,39.2,37.4,93,30.09,1.5,NNW,12.7,19.6,N/A,,Overcast,340,2012-02-17 09:17:00
4:51 AM,37.0,35.1,93,30.13,1.2,NNW,13.8,-,N/A,,Overcast,340,2012-02-17 09:51:00
5:12 AM,35.6,33.8,93,30.10,3.0,NNW,12.7,-,N/A,,Overcast,340,2012-02-17 10:12:00
5:32 AM,35.6,32.0,87,30.11,6.0,NNW,10.4,-,N/A,,Overcast,340,2012-02-17 10:32:00
5:51 AM,35.1,30.9,85,30.15,8.0,NNW,10.4,-,N/A,,Overcast,340,2012-02-17 10:51:00
6:01 AM,35.6,30.2,81,30.11,9.0,NNW,8.1,-,N/A,,Overcast,340,2012-02-17 11:01:00
6:25 AM,35.6,30.2,81,30.12,9.0,NNW,11.5,-,N/A,,Overcast,330,2012-02-17 11:25:00
6:51 AM,35.1,28.9,78,30.16,9.0,NNW,6.9,-,N/A,,Overcast,330,2012-02-17 11:51:00
7:51 AM,34.0,28.9,82,30.17,8.0,WNW,3.5,-,N/A,,Overcast,300,2012-02-17 12:51:00
8:51 AM,36.0,30.0,79,30.18,7.0,WNW,6.9,-,N/A,,Overcast,290,2012-02-17 13:51:00
9:51 AM,37.4,28.4,70,30.13,10.0,NW,8.1,-,N/A,,Overcast,310,2012-02-17 14:51:00
10:51 AM,39.2,28.4,65,30.14,10.0,NNW,9.2,-,N/A,,Mostly Cloudy,330,2012-02-17 15:51:00
11:29 AM,39.2,28.4,65,30.14,10.0,WNW,9.2,-,N/A,,Scattered Clouds,300,2012-02-17 16:29:00
11:51 AM,41.0,28.9,62,30.17,10.0,NNW,11.5,-,N/A,,Partly Cloudy,330,2012-02-17 16:51:00
12:51 PM,41.0,28.0,60,30.16,10.0,WNW,9.2,-,N/A,,Scattered Clouds,300,2012-02-17 17:51:00
1:51 PM,44.1,28.0,53,30.13,10.0,WNW,4.6,-,N/A,,Clear,290,2012-02-17 18:51:00
2:51 PM,45.0,26.1,48,30.12,10.0,NW,6.9,-,N/A,,Clear,320,2012-02-17 19:51:00
3:51 PM,46.9,25.0,42,30.10,10.0,West,8.1,-,N/A,,Clear,280,2012-02-17 20:51:00
4:51 PM,45.0,24.1,44,30.12,10.0,WNW,10.4,17.3,N/A,,Clear,290,2012-02-17 21:51:00
5:51 PM,43.0,24.1,47,30.15,10.0,WNW,5.8,-,N/A,,Clear,300,2012-02-17 22:51:00
6:51 PM,39.9,24.1,53,30.16,10.0,NW,5.8,-,N/A,,Clear,310,2012-02-17 23:51:00
7:51 PM,39.0,24.1,55,30.17,10.0,NW,3.5,-,N/A,,Clear,310,2012-02-18 00:51:00
8:51 PM,34.0,24.1,67,30.17,10.0,Calm,Calm,-,N/A,,Clear,0,2012-02-18 01:51:00
9:51 PM,32.0,24.1,73,30.17,10.0,Calm,Calm,-,N/A,,Clear,0,2012-02-18 02:51:00
10:51 PM,30.9,24.1,76,30.16,10.0,Calm,Calm,-,N/A,,Clear,0,2012-02-18 03:51:00
11:51 PM,30.0,24.1,79,30.15,10.0,South,3.5,-,N/A,,Clear,180,2012-02-18 04:51:00